Location: Newark
(45.8667°N, 9.7333°E)
Time: 14:32:34
(UTC+00:00)

A-11 Canister half - Pass Details

Date: 20 January 2020
Orbit: 1517 x 1683 km, 47.2° (Epoch: 22 February)

Event Time Altitude Azimuth Distance (km) Brightness Sun altitude
Rises 00:35:48 0° 232° (SW) 4,707 - -61.2°
Reaches altitude 10° 00:38:54 10° 229° (SW) 3,709 - -60.9°
Maximum altitude 00:48:04 65° 151° (SSE) 1,648 - -60.0°
Exits shadow 00:56:30 13° 73° (ENE) 3,471 11.1 -59.1°
Drops below altitude 10° 00:57:10 10° 72° (ENE) 3,685 11.3 -59.0°
Sets 01:00:14 0° 70° (ENE) 4,675 11.9 -58.6°
